Hourly Data Report for September 16, 2017

All times are specified in Local Standard Time (LST). Add 1 hour to adjust for Daylight Saving Time where and when it is observed.

KAMLOOPS A
BRITISH COLUMBIA

50°42'09.000" N
120°26'55.000" W
345.30 m
1163781
71887
YKA

Download Data

Hourly Data (September 2017)
Hourly Data Report for September 16, 2017
Temp Definition
°C
Dew Point Temp Definition
°C
Rel Hum Definition
%
Wind Dir Definition
10's deg

Wind Spd Definition
km/h
Visibility Definition
km
Stn Press Definition
kPa
Hmdx Definition


Wind Chill Definition


Weather Definition


TIME
00:00 Legend Double Dagger 9.6 0.9 54 10 7 64.4 97.69     LegendNANA
01:00 Legend Double Dagger 8.2 -0.1 55 6 11 64.4 97.69     Clear
02:00 Legend Double Dagger 6.8 -0.1 61 6 10 64.4 97.70     LegendNANA
03:00 Legend Double Dagger 5.7 -0.7 63 6 9 64.4 97.71     LegendNANA
04:00 Legend Double Dagger 5.8 -0.4 64 7 7 64.4 97.73     Clear
05:00 Legend Double Dagger 5.5 -0.6 65 9 11 64.4 97.76     LegendNANA
06:00 Legend Double Dagger 5.0 -0.6 67 5 8 64.4 97.78     LegendNANA
07:00 Legend Double Dagger 7.3 0.3 61 8 11 64.4 97.81     Mostly Cloudy
08:00 Legend Double Dagger 9.4 0.5 54 9 13 64.4 97.82     LegendNANA
09:00 Legend Double Dagger 11.3 0.0 46 10 13 64.4 97.77     LegendNANA
10:00 Legend Double Dagger 13.5 0.4 41 9 7 64.4 97.70     Mostly Cloudy
11:00 Legend Double Dagger 15.1 -0.2 35 17 5 64.4 97.60     LegendNANA
12:00 Legend Double Dagger 17.4 0.4 31 15 5 64.4 97.48     LegendNANA
13:00 Legend Double Dagger 20.1 0.8 27 12 5 64.4 97.34     Mostly Cloudy
14:00 Legend Double Dagger 21.3 0.2 24 12 7 64.4 97.22     LegendNANA
15:00 Legend Double Dagger 23.4 0.4 22 10 13 64.4 97.11     LegendNANA
16:00 Legend Double Dagger 23.2 0.3 22 6 5 64.4 97.05     Mostly Cloudy
17:00 Legend Double Dagger 22.7 1.3 24 9 14 64.4 96.98     LegendNANA
18:00 Legend Double Dagger 20.9 0.6 26 7 18 64.4 96.97     LegendNANA
19:00 Legend Double Dagger 18.8 1.0 30 36 3 64.4 96.97     Mostly Cloudy
20:00 Legend Double Dagger 18.2 0.8 31 9 23 64.4 96.98     LegendNANA
21:00 Legend Double Dagger 16.3 0.4 34 36 4 64.4 96.99     LegendNANA
22:00 Legend Double Dagger 12.9 -1.3 37 27 4 64.4 97.01     Mainly Clear
23:00 Legend Double Dagger 12.4 0.8 45 36 1 64.4 96.99     LegendNANA

Notes on Data Quality.

Legend

  • E = Estimated
  • M = Missing
  • NA = Not Available
  • ‡ = Partner data that is not subject to review by the National Climate Archives
Date modified: